SES-11 (ECHOSTAR 105)

Last updated on Sun Jun 21 2026 00:03:07 GMT+0000 (Coordinated Universal Time)

1 42967U 17063A 26171.36003124 -.00000094 00000+0 00000+0 0 9993 2 42967 0.0149 3.9068 0002813 71.1261 218.1920 1.00271096 31757
UTC large
Height (km)
Speed (km/s)
/
Latitude / Longitude
Inclination (degrees)
Orbital Period (minutes)
Azimuth
Elevation
Range (km)
Doppler Factor

Next 0 passes for location: London (51.5072 / 0.1276)

No passes found over London.
SES-11 (ECHOSTAR 105)